Regional Weather Roundup
Issued by NWS Lake Charles, LA

Home | Current Version | Previous Version | Text Only | Print | Product List | Glossary On
Versions: 1 2 3 4 5 6 7 8 9 10 11 12 13 14 15 16 17 18 19 20 21 22 23 24 25 26 27 28 29 30 31 32 33 34 35 36 37 38 39 40 41 42 43 44 45 46 47 48 49 50
000
ASUS44 KLCH 051510
RWRLCH
RWRLCH
REGIONAL WEATHER ROUNDUP
NATIONAL WEATHER SERVICE LAKE CHARLES LA
1000 AM CDT SAT SEP 05 2015

Note: "fair" indicates few or no clouds below 12,000 feet with no
significant weather and/or obstructions to visibility.


ACROSS SOUTHEAST TEXAS

CITY           SKY/WX    TMP DP  RH WIND       PRES   REMARKS
BEAUMONT       MOSUNNY   86  78  77 VRB3      30.04R
BEAUMONT CITY    N/A     85  77  76 S5        30.05R
ORANGE         SUNNY    N/A N/A N/A CALM      30.06R
JASPER         MOSUNNY   86  78  78 SW5       30.08R
$$

ACROSS CENTRAL LOUISIANA

CITY           SKY/WX    TMP DP  RH WIND       PRES   REMARKS
LEESVILLE      PTSUNNY   83  76  81 W7        30.06R
FULLERTON      PTSUNNY   86  76  71 VRB5      30.04R
ALEXANDRIA INT MOSUNNY   86  72  62 NW8       30.04R
ESLER FIELD    SUNNY     88  75  65 W6        30.05S
DERIDDER         N/A     85  76  74 CALM      30.08R
OAKDALE          N/A     81  79  92 CALM      30.06R
OPELOUSAS        N/A    N/A N/A N/A W7        30.06R
$$

ACROSS SOUTHWEST AND SOUTH CENTRAL LOUISIANA

CITY           SKY/WX    TMP DP  RH WIND       PRES   REMARKS
SULPHUR        MOSUNNY   87  80  79 CALM      30.05S HX 102
LAKE CHARLES   PTSUNNY   86  78  77 CALM      30.05R
CHENNAULT INT  SUNNY     84  79  84 CALM      30.05S
CAMERON PHI    SUNNY     86  77  74 S6        30.08R
DEQUINCY       CLOUDY    84  78  83 SW10      30.06R
JENNINGS       NOT AVBL
LAFAYETTE      PTSUNNY   86  77  74 N5        30.06R
NEW IBERIA     SUNNY     86  78  77 CALM      30.06R
ABBEVILLE      CLOUDY    84  78  80 W3        30.06R
PATTERSON      MOSUNNY   82  77  83 NW5       30.07R
SALT POINT       N/A     83  79  88 CALM      30.04R
$$

SELECTED SITES ACROSS THE REGION

CITY           SKY/WX    TMP DP  RH WIND       PRES   REMARKS
HOUSTON BUSH   PTSUNNY   86  78  77 SE6       30.03R
HOUSTON HOBBY  PTSUNNY   86  78  77 S6        30.02R
GALVESTON      PTSUNNY   85  78  80 SE9       30.04R
COLLEGE STAT   PTSUNNY   83  77  82 S9        30.04R
CONROE         PTSUNNY   84  75  74 S6        30.05R
HUNTSVILLE     MOSUNNY   85  75  72 SW8       30.05R
LUFKIN         MOSUNNY   83  75  77 S5        30.05R
SHREVEPORT     MOSUNNY   86  75  69 CALM      30.04S
MONROE         SUNNY     87  76  69 CALM      30.05S
NATCHEZ MS     PTSUNNY   82  75  78 NW6       30.07S
BATON ROUGE    MOSUNNY   84  77  79 W5        30.06R
N.O. INTL ARPT PTSUNNY   84  76  76 NW7       30.05R
SLIDELL        SUNNY     85  78  80 VRB3      30.04S
$$

MARINE REPORTS

STATION/POSITION TIME  TEMP    WIND        PRES    VSBY  WAVE
                       AIR SEA DIR/SP/G                  HT/PER
                 (UTC) (F)     (DEG/KT/KT) (MB)    (MI)  (FT/S)
BUOY 30 S HIGH I 1450   85 86  170/  8/  8 1017.1R         2/ 6
SEA RIM ST PARK  1500   85     180/  3/  4 1017.9R
PORT ARTHUR      1400      86     CALM     1017.1R
SABINE PASS N    1400   85 85  220/  2/  6 1017.3R
TEXAS POINT      NOT AVBL
CALCASIEU PASS   1400   85 84  250/  4/  5 1016.4R
LK CHARLES BEACH 1400   84 87                N/A
MARSH ISLAND     1400   88        CALM       N/A           0
FRESH WATER LOCK 1400   85 86  200/  1/  2 1017.6R
AMERADA PASS     1400   81 83   50/  2/  3 1017.4R
$$



USA.gov is the U.S. government's official web portal to all federal, state and local government web resources and services.